Location: Leigné
(46.9130°N, 0.4721°E)
Time: 17:50:28
(UTC+00:00)

Daily predictions for brighter satellites

Satellite Brightness Start Highest point End
(mag) Time Altitude Azimuth Time Altitude Azimuth Time Altitude Azimuth
Lacrosse 5 rocket 1.6 17:31:04 10° NW 17:34:26 37° NNE 17:37:52 10° E
USA 290 4.3 17:32:24 10° WSW 17:35:11 26° WNW 17:37:59 10° N
Cosmos 1844 4.1 17:30:09 10° NNW 17:35:45 46° NE 17:41:15 10° SE
Cosmos 2219 Rocket 3.7 17:34:32 10° SE 17:37:47 16° E 17:41:02 10° ENE
Cosmos 2360 Rocket 2.9 17:33:35 10° S 17:38:38 35° ESE 17:43:44 10° NE
Cosmos 2278 4.2 17:34:53 10° SW 17:40:30 63° WNW 17:46:11 10° NNE
SMAP 3.9 17:37:24 10° S 17:41:59 58° W 17:46:36 10° NNW
Cosmos 1892 Rocket 4.5 17:40:26 10° SSE 17:44:11 28° E 17:47:55 10° NNE
Cosmos 407 Rocket 4.1 17:40:27 10° SW 17:45:31 58° WNW 17:50:35 10° NNE
Cosmos 1461 3.2 17:42:16 10° SSW 17:46:25 55° ESE 17:50:47 10° NE
Cosmos 676 Rocket 4.1 17:42:31 10° S 17:47:42 59° ESE 17:52:53 10° NNE
Cosmos 2278 Rocket 3.9 17:46:23 10° N 17:49:12 14° NE 17:52:01 10° ENE
ARGOS 4.4 17:44:07 10° S 17:49:15 47° W 17:54:27 10° NNW
Cosmos 1340 3.8 17:46:52 10° NNE 17:49:47 22° ENE 17:52:42 10° ESE
COSMO-SKYMED 1 2.8 17:46:16 10° NNE 17:50:30 47° E 17:54:41 10° S
ATLAS 5 CENTAUR R/B 4.0 17:51:14 10° NNW 17:52:02 10° N 17:52:52 10° N
Cosmos 2322 Rocket 2.2 17:46:35 10° SSW 17:52:07 65° ESE 17:57:41 10° NNE
BlueWalker 3 3.1 17:50:03 10° WNW 17:53:34 31° N 17:56:49 11° ENE
CZ-4C R/B 3.7 17:50:11 10° NNE 17:53:43 37° E 17:57:04 10° SSE
Cosmos 2333 Rocket 3.0 17:49:01 10° SSE 17:53:55 31° ESE 17:58:50 10° NE
Cosmos 1633 2.9 17:55:30 10° SSE 17:58:34 35° E 18:01:41 10° NNE
Cosmos 1726 Rocket 3.5 17:57:33 10° N 18:01:50 58° ENE 18:06:05 10° SSE
CZ-4 R/B 2.7 17:58:50 10° ESE 18:01:52 20° ENE 18:04:52 10° NNE
SL-08 ROCKET BODY 4.4 17:56:12 10° N 18:02:06 88° W 18:07:57 10° S
Cosmos 1606 4.3 18:00:00 10° NNE 18:02:24 16° ENE 18:03:58 13° E
In-Cosmos 22 Rocket 4.3 18:00:47 10° S 18:06:31 64° E 18:12:17 10° NNE
SL-16 R/B 2.5 18:02:30 10° SW 18:08:10 71° WNW 18:13:51 10° NNE
COSMOS 2428 4.1 18:05:31 10° SE 18:09:06 17° E 18:11:03 15° ENE
RESURS DK-1 2.3 18:06:03 10° NNW 18:10:11 71° ENE 18:14:17 10° SE
SL-4 R/B 2.3 18:07:06 10° WNW 18:10:26 41° N 18:12:47 18° ENE
Cosmos 1408 4.0 18:07:38 10° SW 18:10:50 37° WNW 18:14:05 10° N
Cosmos 1244 Rocket 4.5 18:08:07 10° N 18:14:28 76° E 18:20:43 10° SSE
Genesis I 3.3 18:10:36 10° SSW 18:14:30 62° ESE 18:17:45 14° NE
Cosmos 1980 Rocket 4.3 18:13:43 10° W 18:18:01 21° NW 18:22:20 10° N
BREEZE M DEB (TANK) 4.4 18:14:35 10° WNW 18:19:12 33° SW 18:21:38 10° SSE
Cosmos 1943 Rocket 4.2 18:18:43 10° NNE 18:19:36 10° NNE 18:20:28 10° NE
SL-08 R/B 4.4 18:16:01 10° N 18:20:46 48° WNW 18:25:30 10° SW
SKYMED 3 4.4 18:17:09 10° NNE 18:21:18 68° ESE 18:25:25 10° S
Okean O Rocket 2.2 18:22:43 10° SE 18:26:40 34° ENE 18:30:41 10° N
Cosmos 1745 Rocket 4.1 18:21:34 10° N 18:27:37 49° ENE 18:33:34 10° SSE
Lacrosse 5 2.3 18:24:04 10° WSW 18:29:08 61° NNW 18:33:04 17° NE
IGS 5A 4.3 18:31:16 25° E 18:32:00 27° ENE 18:35:30 10° N
MOS 1-B 4.3 18:27:02 10° SSE 18:32:45 65° ENE 18:38:30 10° N
Cosmos 2322 4.3 18:28:23 10° S 18:33:32 36° ESE 18:37:02 19° NE
PAYLOAD B 4.2 18:30:37 10° SSE 18:36:07 87° ENE 18:41:40 10° NNW
Okean 1-7 Rocket 4.2 18:32:42 10° SSE 18:36:37 32° E 18:39:09 18° NE
SKYMED 2 4.3 18:34:24 10° N 18:38:40 56° WNW 18:42:54 10° SSW
USA 215 4.0 18:35:06 10° SSE 18:41:29 54° SW 18:47:54 10° WNW
Cosmos 2058 Rocket 3.0 18:40:26 10° N 18:44:52 88° W 18:49:18 10° S
YAOGAN 1 2.5 18:40:38 10° SSE 18:44:57 87° ENE 18:49:18 10° NNW
Cosmos 1869 3.5 18:41:34 10° NNW 18:45:27 72° W 18:49:23 10° S
Cosmos 1709 Rocket 4.2 18:39:58 10° N 18:45:48 43° ENE 18:51:34 10° SE
Meteor 1-27 4.4 18:41:45 10° NNW 18:47:33 79° W 18:53:13 10° S
Cosmos 1814 Rocket 4.1 18:46:04 10° NNW 18:51:18 52° ENE 18:54:28 23° SE
Cosmos 1553 Rocket 4.0 18:45:21 10° S 18:51:27 83° W 18:57:40 10° N
Gblst 52 Del rocket 4.4 18:46:17 10° W 18:51:49 58° NNW 18:54:30 29° ENE
ATLAS 2AS CENTAUR R/B 4.1 18:46:30 10° NW 18:52:45 37° WSW 18:58:41 10° S
ATLAS CENTAUR R/B 4.1 18:52:21 10° NW 18:54:26 13° NNW 18:56:30 10° N
PSLV R/B 4.1 18:50:53 10° S 18:54:30 62° WSW 18:58:13 10° NNW
Cosmos 1417 Rocket 4.4 18:48:44 10° S 18:54:59 79° E 19:01:11 10° N
Cosmos 1844 Rocket 4.0 18:51:55 10° NW 18:57:06 40° WSW 19:02:15 10° S
Cosmos 1850 Rocket 3.9 18:52:29 10° SSW 18:57:41 90° NW 19:02:48 10° NNE
Cosmos 841 Rocket 3.8 18:53:41 10° NNW 18:58:56 69° WSW 19:04:08 10° S
Cosmos 1825 4.4 19:01:41 10° SW 19:04:48 26° WNW 19:07:57 10° NNW
Cosmos 1741 Rocket 4.1 19:01:31 10° SSW 19:06:51 81° WNW 19:12:02 11° NNE
SJ-6B 4.1 19:10:10 29° NNE 19:10:10 29° NNE 19:12:20 10° N
USA 81 3.9 19:04:09 10° S 19:09:22 68° E 19:14:37 10° N
CZ-4B R/B 3.4 19:04:34 10° S 19:09:55 71° WSW 19:15:24 10° NNW
Lacrosse 5 rocket 2.4 19:09:57 10° WNW 19:13:16 35° SW 19:14:37 26° S
Cosmos-2242 4.3 19:10:35 10° N 19:12:36 26° NNE 19:12:36 26° NNE
Cosmos 2219 Rocket 2.1 19:15:21 10° SSW 19:20:57 83° WNW 19:24:23 25° NNE
Cosmos 2360 Rocket 3.3 19:17:13 10° SW 19:22:33 41° NW 19:27:56 10° NNE
S3M 4.2 19:21:29 10° SSW 19:27:52 74° W 19:34:16 10° N
Cosmos 1570 Rocket 3.9 19:23:45 10° NNW 19:29:07 67° ENE 19:29:08 67° ENE
Cosmos 44 Rocket 3.6 19:27:08 10° SW 19:31:46 59° NW 19:32:55 45° N
BlueWalker 3 3.1 19:28:56 10° WNW 19:31:36 37° NNW 19:31:36 37° NNW
Cosmos 2278 Rocket 2.4 19:29:02 10° NNW 19:34:05 53° NE 19:34:05 53° NE
CZ-4 R/B 2.6 19:32:37 10° S 19:36:29 41° W 19:40:21 10° NNW
Cosmos 968 Rocket 3.4 19:31:26 10° SSW 19:36:19 75° SSE 19:36:19 75° SSE
Cosmos 2322 Rocket 4.1 19:32:02 10° WSW 19:36:38 25° NW 19:41:16 10° N
Cosmos 2333 Rocket 3.1 19:32:32 10° SW 19:37:59 47° NW 19:42:19 16° NNE
Cosmos 1606 3.8 19:34:27 10° NNW 19:38:06 43° W 19:38:52 37° SW
ATLAS 5 CENTAUR R/B 4.0 19:35:53 10° NNW 19:37:28 14° N 19:37:28 14° N
BREEZE-M DEB (TANK) 2.9 19:27:22 10° WSW 19:38:39 85° SSE 19:38:56 79° E
Cosmos 1812 Rocket 4.4 19:35:37 10° N 19:38:39 43° NNW 19:38:39 43° NNW
Cosmos 2369 Rocket 4.5 19:45:44 10° N 19:46:17 11° NNE 19:46:17 11° NNE
CSL-04 Debris 4.2 19:48:17 55° S 19:49:27 76° WSW 19:54:53 10° NNW
SL-4 R/B 3.7 19:46:18 10° WNW 19:48:06 28° WNW 19:48:06 28° WNW
Cosmos 2315 Rocket 4.0 19:45:18 10° SSW 19:51:38 80° W 19:58:04 10° N
Atlas Centaur 2 4.3 19:45:47 10° SW 19:52:05 24° S 19:53:34 23° SSE
COSMOS 2428 2.7 19:46:58 10° SSW 19:52:39 78° WNW 19:53:09 72° NNW
CSL-04 Rocket 3.6 19:53:48 78° WSW 19:53:52 78° WSW 19:59:18 10° NNW
Okean O Rocket 3.6 19:59:19 10° SSW 20:03:03 27° W 20:06:49 10° NW
Cosmos 1943 Rocket 3.8 19:59:48 10° NNW 20:02:17 24° N 20:02:17 24° N
Lacrosse 5 3.5 20:08:30 10° WNW 20:12:17 28° NNW 20:12:17 28° NNW
Cosmos 2219 Rocket 4.5 21:01:59 10° W 21:05:48 18° NW 21:06:10 18° NW
